BEIDOU 18 (C57)

Last updated on Dec. 12, 2019, 4:25 a.m. UTC

1 40748U 15037A   19345.50044417 -.00000061  00000-0  00000+0 0  9993
2 40748  55.8859  22.7276 0003831 304.3250  65.2319  1.86232444 29802
UTC
Height (km)
Latitude
Longitude
Inclination
Orbital Period
UTC large
Height (km)
Speed (km/s)
/
Latitude / Longitude
Inclination (degrees)
Orbital Period (minutes)
Azimuth
Elevation
Range (km)
Doppler Factor
iOS Compass Heading
iOS Angle

Next 30 passes for location: Hong Kong

Rise time Rise Azimuth (degrees) Set time Set Azimuth (degrees) Duration Max altitude (degrees)

No matching passes for this satellites